Date String (YYYY-MM-DD hh:mm:ss) UTC,Instrument flags,absolute air pressure of the measurement (hPa),sample flow rate (lpm),inlet stack bypass flow (lpm),air temperature of the measurement (°C),ambient temperature measured by the external sensor (°C),aerosol sample conditioner tube jacket temperature (°C),OPC LED temperature (°C),internal box temperature (°C),relative humidity of the measurement (%),span deviation,mass concentration of particles derived from Lorenz-Mie calculation of OPC scattering (μg/m³),mass concentration of particles derived from Lorenz-Mie calculation of OPC scattering (μg/m³),mass concentration of particles derived from Lorenz-Mie calculation of OPC scattering (μg/m³)
DateTimeUTC,F1_M11,P_M11,Q1_M11,Q2_M11,T1_M11,T2_M11,T3_M11,T4_M11,T5_M11,U1_M11,ZSPAN_M11,X2_M11,X0_M11,X1_M11
2023-06-27 21:00:00,SystemResetWarning,0824.3,5.01,000.00,028.9,025.6,000.0,037.3,030.4,14.4,0000.0,0004.73,0008.64,0004.09
2023-06-27 21:01:00,SystemResetWarning,0824.3,5.00,000.00,028.9,026.2,000.0,037.3,030.5,15.6,0000.0,0004.78,0008.59,0004.16
2023-06-27 21:02:00,SystemResetWarning,0824.3,4.99,000.00,028.9,026.6,000.0,037.3,030.6,18.2,0000.0,0004.78,0008.71,0004.19
2023-06-27 21:03:00,SystemResetWarning,0824.2,5.00,000.00,029.0,027.0,000.0,037.4,030.7,19.8,0000.0,0004.84,0008.91,0004.25
2023-06-27 21:04:00,SystemResetWarning,0824.2,5.00,000.00,029.0,027.3,000.0,037.4,030.8,17.4,0000.0,0004.90,0008.91,0004.34
2023-06-27 21:05:00,SystemResetWarning,0824.2,5.00,000.00,029.1,027.5,000.0,037.4,030.8,14.1,0000.0,0004.97,0009.16,0004.39
2023-06-27 21:06:00,SystemResetWarning,0824.2,4.99,000.00,029.1,025.9,000.0,037.4,030.8,17.2,0000.0,0005.02,0009.72,0004.42
2023-06-27 21:07:00,SystemResetWarning,0824.1,5.01,000.00,029.1,024.5,000.0,037.3,030.7,18.2,0000.0,0005.13,0010.46,0004.47
2023-06-27 21:08:00,SystemResetWarning,0824.1,5.02,000.00,029.0,024.8,000.0,037.3,030.7,20.2,0000.0,0005.16,0010.69,0004.45
2023-06-27 21:09:00,SystemResetWarning,0824.2,5.00,000.00,029.0,025.2,000.0,037.3,030.4,19.8,0000.0,0005.16,0011.37,0004.39
2023-06-27 21:10:00,SystemResetWarning,0824.2,5.00,000.00,028.9,025.7,000.0,037.3,030.4,19.3,0000.0,0005.11,0011.47,0004.36
2023-06-27 21:11:00,SystemResetWarning,0824.1,5.00,000.00,028.9,026.2,000.0,037.4,030.5,18.5,0000.0,0005.01,0011.17,0004.29
2023-06-27 21:12:00,SystemResetWarning,0824.1,5.00,000.00,029.0,026.6,000.0,037.4,030.6,21.0,0000.0,0004.98,0011.33,0004.25
2023-06-27 21:13:00,SystemResetWarning,0824.1,5.00,000.00,029.0,027.0,000.0,037.4,030.7,21.6,0000.0,0005.04,0011.32,0004.27
2023-06-27 21:14:00,SystemResetWarning,0824.1,5.00,000.00,029.0,027.4,000.0,037.4,030.8,19.8,0000.0,0005.06,0011.20,0004.29
2023-06-27 21:15:00,SystemResetWarning,0824.2,5.00,000.00,029.1,027.6,000.0,037.4,030.9,19.1,0000.0,0005.12,0011.39,0004.34
2023-06-27 21:16:00,SystemResetWarning,0824.2,4.98,000.00,029.1,026.3,000.0,037.4,030.9,19.6,0000.0,0005.32,0011.94,0004.48
2023-06-27 21:17:00,SystemResetWarning,0824.2,5.01,000.00,029.1,024.6,000.0,037.4,030.8,19.3,0000.0,0005.53,0012.00,0004.65
2023-06-27 21:18:00,SystemResetWarning,0824.3,5.02,000.00,029.1,024.7,000.0,037.3,030.7,19.9,0000.0,0005.68,0011.92,0004.82
2023-06-27 21:19:00,SystemResetWarning,0824.3,5.00,000.00,029.0,025.2,000.0,037.3,030.5,19.5,0000.0,0005.81,0012.10,0004.97
2023-06-27 21:20:00,SystemResetWarning,0824.2,5.00,000.00,029.0,025.7,000.0,037.4,030.5,20.1,0000.0,0005.90,0012.36,0005.09
2023-06-27 21:21:00,SystemResetWarning,0824.1,5.00,000.00,029.0,026.2,000.0,037.4,030.6,21.2,0000.0,0005.98,0013.29,0005.19
2023-06-27 21:22:00,SystemResetWarning,0824.2,5.00,000.00,029.0,026.6,000.0,037.4,030.6,22.9,0000.0,0006.18,0014.52,0005.35
2023-06-27 21:23:00,SystemResetWarning,0824.2,4.99,000.00,029.0,027.0,000.0,037.4,030.7,21.1,0000.0,0006.36,0014.82,0005.49
2023-06-27 21:24:00,SystemResetWarning,0824.3,4.99,000.00,029.1,027.4,000.0,037.5,030.8,22.4,0001.7,0006.49,0015.75,0005.62
2023-06-27 21:25:00,SystemResetWarning,0824.3,5.00,000.00,029.1,027.6,000.0,037.5,030.9,21.4,0000.0,0006.62,0017.14,0005.72
2023-06-27 21:26:00,SystemResetWarning,0824.2,5.00,000.00,029.2,026.6,000.0,037.5,030.9,19.4,0000.0,0006.73,0017.79,0005.81
2023-06-27 21:27:00,SystemResetWarning,0824.0,4.99,000.00,029.1,024.8,000.0,037.4,030.8,19.9,0000.0,0006.82,0017.77,0005.86
2023-06-27 21:28:00,SystemResetWarning,0823.9,5.02,000.00,029.1,024.7,000.0,037.4,030.8,18.1,0000.0,0006.87,0018.57,0005.90
2023-06-27 21:29:00,SystemResetWarning,0823.9,5.01,000.00,029.0,025.1,000.0,037.4,030.6,20.4,0000.0,0006.97,0018.53,0005.95
2023-06-27 21:30:00,SystemResetWarning,0823.9,4.99,000.00,029.0,025.6,000.0,037.4,030.5,20.2,0002.8,0007.08,0018.76,0005.98
2023-06-27 21:31:00,SystemResetWarning,0824.0,5.00,000.00,029.0,026.1,000.0,037.4,030.5,21.4,0004.3,0007.12,0018.64,0006.02
2023-06-27 21:32:00,SystemResetWarning,0824.0,5.01,000.00,029.0,026.5,000.0,037.4,030.6,19.4,0004.3,0007.19,0018.03,0006.06
2023-06-27 21:33:00,SystemResetWarning,0824.0,4.98,000.00,029.1,026.9,000.0,037.5,030.7,17.2,0004.4,0007.17,0017.62,0006.07
2023-06-27 21:34:00,SystemResetWarning,0824.2,5.01,000.00,029.1,027.3,000.0,037.5,030.8,19.4,0004.3,0007.12,0016.97,0006.06
2023-06-27 21:35:00,SystemResetWarning,0824.2,5.01,000.00,029.1,027.3,000.0,037.5,030.9,18.7,0004.4,0007.09,0016.63,0006.05
2023-06-27 21:36:00,SystemResetWarning,0824.2,4.98,000.00,029.2,025.6,000.0,037.4,030.9,20.8,0004.3,0007.08,0015.83,0006.04
2023-06-27 21:37:00,SystemResetWarning,0824.2,5.01,000.00,029.1,024.4,000.0,037.4,030.8,17.4,0004.5,0007.04,0016.15,0006.01
2023-06-27 21:38:00,SystemResetWarning,0824.3,5.01,000.00,029.1,024.8,000.0,037.4,030.7,16.6,0004.4,0006.97,0016.39,0005.95
2023-06-27 21:39:00,SystemResetWarning,0824.3,4.99,000.00,029.0,025.2,000.0,037.4,030.4,16.5,0004.3,0006.80,0015.56,0005.83
2023-06-27 21:40:00,SystemResetWarning,0824.4,5.00,000.00,029.0,025.7,000.0,037.4,030.5,18.3,0003.9,0006.71,0015.64,0005.73
2023-06-27 21:41:00,SystemResetWarning,0824.4,5.00,000.00,029.0,026.2,000.0,037.4,030.5,17.1,0002.8,0006.54,0015.88,0005.62
2023-06-27 21:42:00,SystemResetWarning,0824.4,5.00,000.00,029.0,026.7,000.0,037.4,030.7,18.4,0000.0,0006.44,0015.82,0005.50
2023-06-27 21:43:00,SystemResetWarning,0824.4,5.01,000.00,029.1,027.1,000.0,037.4,030.8,19.0,0000.0,0006.28,0015.82,0005.34
2023-06-27 21:44:00,SystemResetWarning,0824.3,5.00,000.00,029.1,027.5,000.0,037.5,030.9,16.2,0000.0,0006.07,0014.91,0005.13
2023-06-27 21:45:00,SystemResetWarning,0824.3,4.98,000.00,029.2,026.9,000.0,037.5,031.0,14.8,0000.0,0005.86,0014.68,0004.93
2023-06-27 21:46:00,SystemResetWarning,0824.3,5.00,000.00,029.1,024.9,000.0,037.4,030.8,16.6,0000.0,0005.80,0014.90,0004.84
2023-06-27 21:47:00,SystemResetWarning,0824.3,5.02,000.00,029.1,024.6,000.0,037.4,030.8,17.0,0000.0,0005.71,0014.67,0004.77
2023-06-27 21:48:00,SystemResetWarning,0824.3,4.99,000.00,029.1,025.0,000.0,037.4,030.5,16.3,0000.0,0005.66,0014.12,0004.67
2023-06-27 21:49:00,SystemResetWarning,0824.4,5.00,000.00,029.0,025.5,000.0,037.4,030.5,16.1,0000.0,0005.58,0013.45,0004.61
2023-06-27 21:50:00,SystemResetWarning,0824.4,5.01,000.00,029.0,026.0,000.0,037.4,030.5,18.3,0000.0,0005.50,0013.04,0004.56
2023-06-27 21:51:00,SystemResetWarning,0824.4,5.01,000.00,029.0,026.5,000.0,037.4,030.7,20.0,0000.0,0005.35,0012.45,0004.46
2023-06-27 21:52:00,SystemResetWarning,0824.4,4.98,000.00,029.1,027.0,000.0,037.4,030.8,20.5,0000.0,0005.21,0012.19,0004.37
2023-06-27 21:53:00,SystemResetWarning,0824.5,5.00,000.00,029.1,027.3,000.0,037.5,030.8,19.7,0000.0,0005.16,0012.51,0004.33
2023-06-27 21:54:00,SystemResetWarning,0824.4,5.02,000.00,029.1,027.6,000.0,037.5,030.9,18.6,0000.0,0005.15,0012.35,0004.32
2023-06-27 21:55:00,SystemResetWarning,0824.4,4.97,000.00,029.2,027.3,000.0,037.5,031.0,16.2,0000.0,0005.21,0013.74,0004.35
2023-06-27 21:56:00,SystemResetWarning,0824.5,5.00,000.00,029.2,025.2,000.0,037.4,030.9,13.1,0000.0,0005.30,0013.87,0004.43
2023-06-27 21:57:00,SystemResetWarning,0824.5,5.00,000.00,029.1,024.5,000.0,037.4,030.8,14.0,0000.0,0005.33,0014.29,0004.46
2023-06-27 21:58:00,SystemResetWarning,0824.4,5.01,000.00,029.1,025.0,000.0,037.4,030.7,11.4,0000.0,0005.39,0014.50,0004.50
2023-06-27 21:59:00,SystemResetWarning,0824.4,5.01,000.00,029.0,025.5,000.0,037.4,030.5,9.7,0000.0,0005.45,0014.47,0004.56
